When you browse on this site, cookies collect data to enhance your experience and personalize the content and advertising you see.
Visit our Privacy Policy to learn more. By continuing to use the site, you agree to this use of cookies and data.
  • Em Portugal
  • Lista de países
  • Para 7 dias
  • Temperatura da água
  • Mapas de satélite
  • Mapa do tempo
  • Widgets de tempo
  • user-avatar
    Iniciar Sessão

    Previsão horária em Chien

    Hoje, 17 Novembro, Sábado

    Tempo Temperatura Precipitação Vento Pressão Humidade
    00:00 +23°C° 0.1 mm 0 m/s 740 mmHg 97%
    01:00 +23°C° 0.1 mm 0 m/s 740 mmHg 98%
    02:00 +23°C° 0.1 mm 0 m/s 740 mmHg 99%
    03:00 +23°C° 0 mm 0 m/s 740 mmHg 99%
    04:00 +23°C° 0 mm 0 m/s 740 mmHg 99%
    05:00 +22°C° 0 mm 0 m/s 740 mmHg 99%
    06:00 +26°C° 0 mm 1 m/s 741 mmHg 92%
    07:00 +27°C° 0 mm 1 m/s 741 mmHg 86%
    08:00 +29°C° 0 mm 1 m/s 741 mmHg 79%
    09:00 +30°C° 0.1 mm 1 m/s 741 mmHg 73%
    10:00 +32°C° 0.1 mm 1 m/s 741 mmHg 66%
    11:00 +33°C° 0.1 mm 1 m/s 740 mmHg 60%
    12:00 +33°C° 0.6 mm 1 m/s 740 mmHg 61%
    13:00 +33°C° 0.6 mm 1 m/s 739 mmHg 62%
    14:00 +33°C° 0.6 mm 1 m/s 738 mmHg 64%
    15:00 +31°C° 1.3 mm 1 m/s 738 mmHg 73%
    16:00 +29°C° 1.3 mm 1 m/s 739 mmHg 83%
    17:00 +27°C° 1.3 mm 1 m/s 739 mmHg 93%
    18:00 +26°C° 0.4 mm 1 m/s 740 mmHg 94%
    19:00 +26°C° 0.4 mm 1 m/s 740 mmHg 95%
    20:00 +25°C° 0.4 mm 1 m/s 741 mmHg 95%
    21:00 +25°C° 0 mm 1 m/s 741 mmHg 96%
    22:00 +25°C° 0 mm 1 m/s 741 mmHg 96%
    23:00 +25°C° 0 mm 1 m/s 741 mmHg 97%

    Amanhã, 18 Novembro, Domingo

    Tempo Temperatura Precipitação Vento Pressão Humidade
    00:00 +25°C° 0 mm 1 m/s 740 mmHg 97%
    01:00 +24°C° 0 mm 1 m/s 740 mmHg 98%
    02:00 +24°C° 0 mm 1 m/s 740 mmHg 98%
    03:00 +22°C° 0 mm 0 m/s 740 mmHg 98%
    04:00 +22°C° 0 mm 0 m/s 740 mmHg 98%
    05:00 +22°C° 0 mm 0 m/s 740 mmHg 98%
    06:00 +23°C° 0 mm 0 m/s 740 mmHg 93%
    07:00 +27°C° 0 mm 1 m/s 741 mmHg 87%
    08:00 +28°C° 0 mm 1 m/s 741 mmHg 81%
    09:00 +31°C° 0 mm 1 m/s 741 mmHg 70%
    10:00 +31°C° 0 mm 0 m/s 741 mmHg 60%
    11:00 +34°C° 0 mm 0 m/s 740 mmHg 49%
    12:00 +34°C° 0 mm 0 m/s 739 mmHg 48%
    13:00 +35°C° 0 mm 1 m/s 738 mmHg 47%
    14:00 +35°C° 0 mm 1 m/s 738 mmHg 46%
    15:00 +33°C° 0.2 mm 1 m/s 738 mmHg 55%
    16:00 +31°C° 0.2 mm 1 m/s 738 mmHg 64%
    17:00 +29°C° 0.2 mm 1 m/s 738 mmHg 73%
    18:00 +28°C° 0.4 mm 1 m/s 738 mmHg 79%
    19:00 +27°C° 0.4 mm 1 m/s 739 mmHg 84%
    20:00 +26°C° 0.4 mm 1 m/s 740 mmHg 90%
    21:00 +26°C° 0.4 mm 1 m/s 740 mmHg 92%
    22:00 +26°C° 0.4 mm 1 m/s 740 mmHg 94%
    23:00 +25°C° 0.4 mm 1 m/s 740 mmHg 96%

    Depois de amanhã, 19 Novembro, Segunda-feira

    Tempo Temperatura Precipitação Vento Pressão Humidade
    00:00 +25°C° 0.8 mm 1 m/s 739 mmHg 96%
    01:00 +25°C° 0.8 mm 1 m/s 739 mmHg 97%
    02:00 +25°C° 0.8 mm 1 m/s 739 mmHg 98%
    03:00 +24°C° 0.1 mm 1 m/s 739 mmHg 98%
    04:00 +24°C° 0.1 mm 1 m/s 739 mmHg 98%
    05:00 +24°C° 0.1 mm 1 m/s 739 mmHg 99%
    06:00 +26°C° 0.1 mm 1 m/s 739 mmHg 93%
    07:00 +27°C° 0.1 mm 1 m/s 740 mmHg 88%
    08:00 +28°C° 0.1 mm 1 m/s 740 mmHg 82%
    09:00 +28°C° 0.4 mm 0 m/s 740 mmHg 74%
    10:00 +30°C° 0.4 mm 0 m/s 740 mmHg 66%
    11:00 +32°C° 0.4 mm 0 m/s 739 mmHg 58%
    12:00 +32°C° 0.7 mm 0 m/s 739 mmHg 59%
    13:00 +31°C° 0.7 mm 0 m/s 738 mmHg 60%
    14:00 +33°C° 0.7 mm 1 m/s 737 mmHg 61%
    15:00 +31°C° 1.3 mm 1 m/s 737 mmHg 71%
    16:00 +29°C° 1.3 mm 1 m/s 738 mmHg 81%
    17:00 +27°C° 1.3 mm 1 m/s 738 mmHg 91%
    18:00 +26°C° 0.7 mm 1 m/s 738 mmHg 92%
    19:00 +26°C° 0.7 mm 1 m/s 739 mmHg 94%
    20:00 +25°C° 0.7 mm 1 m/s 740 mmHg 95%
    21:00 +25°C° 0.2 mm 1 m/s 740 mmHg 95%
    22:00 +25°C° 0.2 mm 1 m/s 740 mmHg 96%
    23:00 +25°C° 0.2 mm 1 m/s 740 mmHg 97%

    20 Novembro, Terça-feira

    Tempo Temperatura Precipitação Vento Pressão Humidade
    00:00 +24°C° 0 mm 1 m/s 739 mmHg 97%
    01:00 +22°C° 0 mm 0 m/s 739 mmHg 97%
    02:00 +22°C° 0 mm 0 m/s 738 mmHg 98%
    03:00 +22°C° 0 mm 0 m/s 739 mmHg 98%
    04:00 +22°C° 0 mm 0 m/s 739 mmHg 98%
    05:00 +22°C° 0 mm 0 m/s 739 mmHg 98%
    06:00 +23°C° 0 mm 0 m/s 740 mmHg 92%
    07:00 +25°C° 0 mm 0 m/s 740 mmHg 86%
    08:00 +28°C° 0 mm 1 m/s 741 mmHg 80%
    09:00 +28°C° 1 mm 0 m/s 740 mmHg 72%
    10:00 +30°C° 1 mm 0 m/s 740 mmHg 64%
    11:00 +32°C° 1 mm 0 m/s 740 mmHg 56%
    12:00 +33°C° 0.1 mm 0 m/s 739 mmHg 53%
    13:00 +35°C° 0.1 mm 1 m/s 738 mmHg 50%
    14:00 +35°C° 0.1 mm 1 m/s 738 mmHg 47%
    15:00 +33°C° 0.2 mm 1 m/s 738 mmHg 55%
    16:00 +32°C° 0.2 mm 1 m/s 738 mmHg 63%
    17:00 +30°C° 0.2 mm 1 m/s 738 mmHg 70%
    18:00 +29°C° 1.9 mm 1 m/s 739 mmHg 78%
    19:00 +27°C° 1.9 mm 1 m/s 740 mmHg 86%
    20:00 +26°C° 1.9 mm 1 m/s 740 mmHg 93%
    21:00 +26°C° 0.7 mm 1 m/s 740 mmHg 94%
    22:00 +26°C° 0.7 mm 1 m/s 740 mmHg 96%
    23:00 +25°C° 0.7 mm 1 m/s 740 mmHg 97%

    21 Novembro, Quarta-feira

    Tempo Temperatura Precipitação Vento Pressão Humidade
    00:00 +25°C° 0.1 mm 1 m/s 740 mmHg 97%
    01:00 +25°C° 0.1 mm 1 m/s 739 mmHg 98%
    02:00 +23°C° 0.1 mm 0 m/s 739 mmHg 98%
    03:00 +23°C° 0.1 mm 0 m/s 739 mmHg 98%
    04:00 +23°C° 0.1 mm 0 m/s 739 mmHg 98%
    05:00 +23°C° 0.1 mm 0 m/s 739 mmHg 99%
    06:00 +24°C° 0.1 mm 0 m/s 740 mmHg 94%
    07:00 +27°C° 0.1 mm 1 m/s 740 mmHg 89%
    08:00 +28°C° 0.1 mm 1 m/s 741 mmHg 85%
    09:00 +30°C° 0 mm 1 m/s 740 mmHg 76%
    10:00 +30°C° 0 mm 0 m/s 740 mmHg 67%
    11:00 +32°C° 0 mm 0 m/s 740 mmHg 58%
    12:00 +32°C° 0.1 mm 0 m/s 739 mmHg 58%
    13:00 +32°C° 0.1 mm 0 m/s 738 mmHg 58%
    14:00 +32°C° 0.1 mm 0 m/s 737 mmHg 58%
    15:00 +30°C° 0.9 mm 0 m/s 738 mmHg 66%
    16:00 +30°C° 0.9 mm 1 m/s 738 mmHg 75%
    17:00 +28°C° 0.9 mm 1 m/s 738 mmHg 84%
    18:00 +27°C° 1 mm 1 m/s 739 mmHg 88%
    19:00 +26°C° 1 mm 1 m/s 739 mmHg 92%
    20:00 +26°C° 1 mm 1 m/s 740 mmHg 96%
    21:00 +25°C° 0 mm 1 m/s 739 mmHg 96%
    22:00 +25°C° 0 mm 1 m/s 739 mmHg 97%
    23:00 +25°C° 0 mm 1 m/s 739 mmHg 98%

    22 Novembro, Quinta-feira

    Tempo Temperatura Precipitação Vento Pressão Humidade
    00:00 +25°C° 0.2 mm 1 m/s 739 mmHg 98%
    01:00 +25°C° 0.2 mm 1 m/s 738 mmHg 98%
    02:00 +25°C° 0.2 mm 1 m/s 738 mmHg 99%
    03:00 +24°C° 0 mm 1 m/s 738 mmHg 99%
    04:00 +24°C° 0 mm 1 m/s 738 mmHg 99%
    05:00 +22°C° 0 mm 0 m/s 739 mmHg 99%
    06:00 +25°C° 0 mm 1 m/s 739 mmHg 95%
    07:00 +26°C° 0 mm 1 m/s 740 mmHg 91%
    08:00 +27°C° 0 mm 1 m/s 740 mmHg 86%
    09:00 +29°C° 0 mm 1 m/s 740 mmHg 79%
    10:00 +30°C° 0 mm 1 m/s 740 mmHg 72%
    11:00 +30°C° 0 mm 0 m/s 739 mmHg 65%
    12:00 +31°C° 0.1 mm 0 m/s 739 mmHg 62%
    13:00 +31°C° 0.1 mm 0 m/s 738 mmHg 58%
    14:00 +32°C° 0.1 mm 0 m/s 737 mmHg 54%
    15:00 +31°C° 0 mm 0 m/s 737 mmHg 60%
    16:00 +29°C° 0 mm 0 m/s 737 mmHg 66%
    17:00 +27°C° 0 mm 0 m/s 737 mmHg 72%
    18:00 +28°C° 0.1 mm 1 m/s 738 mmHg 77%
    19:00 +27°C° 0.1 mm 1 m/s 738 mmHg 82%
    20:00 +27°C° 0.1 mm 1 m/s 739 mmHg 86%
    21:00 +26°C° 0.1 mm 1 m/s 739 mmHg 89%
    22:00 +26°C° 0.1 mm 1 m/s 738 mmHg 92%
    23:00 +25°C° 0.1 mm 1 m/s 738 mmHg 95%
    Mostrar mais